PEGASUS DEB, 27679

Orbit data source: Space-Track

PEGASUS DEB, 27679 is space debris in LEO originally from a launch on Thu, 19 May 1994 UTC launched from the Air Force Western Test Range (AFWTR). Debris objects in space refer to the collection of defunct objects orbiting the Earth. Examples of debris include non-operational satellites, rocket bodies, and fragments generated from explosions, collisions, or faulty payload assembly.

Loading next visibility...
Identifier
27679, 1994-029AEJ
Orbit
LEO
Country
Flag of USUS
Related business
Manufacturer
Unknown
Mission
Spacecraft
Bus & Motor
Unknown
Mass
Unknown
Launch date (UTC)
1994-05-19 (32 years ago)
Launch vehicle
Unknown
Launch site
Air Force Western Test Range (AFWTR)
Object type
Payload
Rocket body
Debris
Shape & HBR
Unknown shape, 0.1 m
Radar Cross Section
Small (<0.1 m²)

Expand to show TLE details & history
Last TLE update: 3 days ago

TLE from 3 days ago
0 PEGASUS DEB
1 27679U 94029AEJ 26116.62453543  .00005188  00000-0  11398-2 0  9999
2 27679  81.9765  69.2665 0296489  31.0783 330.7566 14.33533707259162
Epoch: 2026-04-26T14:59Z
TLE epoch observation values (Epoch: 2026-04-26T14:59:19.861Z)
Latitude
-0.00004°
Longitude
-10.19214°
Altitude
599.241 km
Speed
7.656 km/s
True Right ascension
04h 37m 03s
True Declination
0° 00' 00"
Sunlit
Object was in daylight at epoch
Visualization orbit readout
Latitude
Unknown
Longitude
Unknown
Altitude
Unknown
Speed
Unknown
Apparent Right ascension
Unknown
Apparent Declination
Unknown
Sunlit
N/A
Visualization observer readout
Local Sidereal Time
16:25:44
Azimuth
Unknown
Elevation
Unknown
Doppler factor
Unknown
Orbital elements
Apogee altitude
989.192 km
Perigee altitude
564.905 km
Semi-major axis
7,155.185 km
Eccentricity
0.02965
Inclination
81.9765°
RAAN
69.2665°
Arg. of periapsis
31.0783°
True anomaly
329.04171°
Mean anomaly
330.7566°
Eccentric anomaly
329.90478°
Mean motion
3.58601 °/min
Orbital period
100.39 mins
BSTAR
0.0011398
Loading maneuver chart data...
Computing Atmospheric mass density...
Loading historical data...
Loading historical data...
Loading historical data...
Loading historical data...
Loading historical data...
Loading historical data...
Loading historical data...

Documentation

Showing up to 5 results
|